Location: Boca de Tacagua
(10.5333°N, 66.9833°W)
Time: 18:55:59
(UTC+00:00)

NOAA 19 - Visible Passes

Search period start: 28 March 2023 00:00
Search period end: 07 April 2023 00:00
Orbit: 839 x 861 km, 99.1° (Epoch: 28 March)

Date Brightness Start Highest point End Pass type
(mag) Time Alt. Az. Time Alt. Az. Time Alt. Az.
28 Mar 6.5 00:32:08 28° N 00:32:08 28° N 00:34:44 10° N visible
29 Mar 6.5 00:19:54 26° NNE 00:19:54 26° NNE 00:22:32 10° N visible
30 Mar 6.6 00:07:41 23° NE 00:07:41 23° NE 00:10:10 10° NNE visible
30 Mar 8.1 01:49:41 10° WNW 01:49:41 10° WNW 01:49:41 10° WNW visible
30 Mar 6.7 23:55:28 18° NE 23:55:28 18° NE 23:57:38 10° NNE visible
31 Mar 7.8 01:37:27 14° NW 01:37:27 14° NW 01:38:23 10° NW visible
31 Mar 6.9 23:43:14 14° NE 23:43:14 14° NE 23:44:48 10° NE visible
01 Apr 7.5 01:25:14 19° NW 01:25:14 19° NW 01:26:50 10° NW visible
01 Apr 7.2 23:31:01 10° ENE 23:31:01 10° ENE 23:31:15 10° NE visible
02 Apr 7.1 01:13:01 23° NW 01:13:01 23° NW 01:15:08 10° NNW visible
03 Apr 6.8 01:00:47 28° NNW 01:00:47 28° NNW 01:03:17 10° NNW visible
04 Apr 6.5 00:48:34 31° N 00:48:34 31° N 00:51:20 10° NNW visible
05 Apr 6.3 00:36:20 32° N 00:36:20 32° N 00:39:16 10° N visible
06 Apr 6.3 00:24:07 30° NNE 00:24:07 30° NNE 00:27:04 10° N visible
